Time,TemperatureF,DewpointF,PressureIn,WindDirection,WindDirectionDegrees,WindSpeedMPH,WindSpeedGustMPH,Humidity,HourlyPrecipIn,Conditions,Clouds,dailyrainin,SoftwareType,DateUTC
2013-02-13 00:00:00,27.0,21.7,29.90,WNW,292,0.0,0.0,80,0.00,,,0.00,VWS V14.00,2013-02-13 06:00:00,
2013-02-13 00:30:00,26.2,20.9,29.90,WNW,292,0.0,0.0,80,0.00,,,0.00,VWS V14.00,2013-02-13 06:30:00,
2013-02-13 01:00:00,25.2,20.8,29.89,WNW,292,0.0,0.0,83,0.00,,,0.00,VWS V14.00,2013-02-13 07:00:00,
2013-02-13 01:30:00,24.8,20.7,29.89,WNW,292,0.0,0.0,84,0.00,,,0.00,VWS V14.00,2013-02-13 07:30:00,
2013-02-13 02:00:00,24.4,20.5,29.89,WNW,292,0.0,0.0,85,0.00,,,0.00,VWS V14.00,2013-02-13 08:00:00,
2013-02-13 02:30:00,23.8,20.0,29.88,WNW,292,0.0,0.0,85,0.00,,,0.00,VWS V14.00,2013-02-13 08:30:00,
2013-02-13 03:00:00,23.4,20.1,29.88,WNW,292,0.0,0.0,87,0.00,,,0.00,VWS V14.00,2013-02-13 09:00:00,
2013-02-13 03:30:00,23.0,19.7,29.86,WNW,292,0.0,0.0,87,0.00,,,0.00,VWS V14.00,2013-02-13 09:30:00,
2013-02-13 04:00:00,22.5,19.2,29.86,WNW,292,0.0,0.0,87,0.00,,,0.00,VWS V14.00,2013-02-13 10:00:00,
2013-02-13 04:30:00,22.3,19.6,29.86,WNW,292,0.0,0.0,89,0.00,,,0.00,VWS V14.00,2013-02-13 10:30:00,
2013-02-13 05:00:00,22.3,19.8,29.84,WNW,292,0.0,0.0,90,0.00,,,0.00,VWS V14.00,2013-02-13 11:00:00,
2013-02-13 05:30:00,22.4,19.9,29.84,WNW,292,0.0,0.0,90,0.00,,,0.00,VWS V14.00,2013-02-13 11:30:00,
2013-02-13 06:00:00,22.8,20.3,29.84,NW,315,0.0,2.0,90,0.00,,,0.00,VWS V14.00,2013-02-13 12:00:00,
2013-02-13 06:30:00,22.2,19.5,29.85,NW,315,0.0,0.0,89,0.00,,,0.00,VWS V14.00,2013-02-13 12:30:00,
2013-02-13 07:00:00,22.1,19.6,29.84,NW,315,0.0,0.0,90,0.00,,,0.00,VWS V14.00,2013-02-13 13:00:00,
2013-02-13 07:30:00,21.7,19.2,29.84,NW,315,0.0,0.0,90,0.00,,,0.00,VWS V14.00,2013-02-13 13:30:00,
2013-02-13 08:00:00,23.2,21.5,29.84,NW,315,0.0,0.0,93,0.00,,,0.00,VWS V14.00,2013-02-13 14:00:00,
2013-02-13 08:30:00,26.2,24.5,29.85,NW,315,0.0,0.0,93,0.00,,,0.00,VWS V14.00,2013-02-13 14:30:00,
2013-02-13 09:00:00,31.4,27.4,29.84,NW,315,0.0,2.0,85,0.00,,,0.00,VWS V14.00,2013-02-13 15:00:00,
2013-02-13 09:30:00,34.1,28.0,29.84,NW,315,0.0,4.0,78,0.00,,,0.00,VWS V14.00,2013-02-13 15:30:00,
2013-02-13 10:00:00,37.1,29.3,29.84,NW,315,1.0,7.0,73,0.00,,,0.00,VWS V14.00,2013-02-13 16:00:00,
2013-02-13 10:30:00,41.1,30.2,29.83,WNW,292,1.0,7.0,65,0.00,,,0.00,VWS V14.00,2013-02-13 16:30:00,
2013-02-13 11:00:00,42.8,30.3,29.82,SW,225,2.0,10.0,61,0.00,,,0.00,VWS V14.00,2013-02-13 17:00:00,
2013-02-13 11:30:00,44.9,30.2,29.82,SW,225,3.0,10.0,56,0.00,,,0.00,VWS V14.00,2013-02-13 17:30:00,
2013-02-13 12:00:00,47.4,31.1,29.80,SW,225,2.0,10.0,53,0.00,,,0.00,VWS V14.00,2013-02-13 18:00:00,
2013-02-13 12:30:00,49.8,30.9,29.78,SW,225,3.0,13.0,48,0.00,,,0.00,VWS V14.00,2013-02-13 18:30:00,
2013-02-13 13:00:00,51.4,32.4,29.77,West,270,3.0,11.0,48,0.00,,,0.00,VWS V14.00,2013-02-13 19:00:00,
2013-02-13 13:30:00,52.6,32.4,29.76,West,270,3.0,11.0,46,0.00,,,0.00,VWS V14.00,2013-02-13 19:30:00,
2013-02-13 14:00:00,54.4,31.8,29.74,West,270,4.0,14.0,42,0.00,,,0.00,VWS V14.00,2013-02-13 20:00:00,
2013-02-13 14:30:00,55.2,31.3,29.73,WSW,248,2.0,12.0,40,0.00,,,0.00,VWS V14.00,2013-02-13 20:30:00,
2013-02-13 15:00:00,55.0,29.2,29.72,West,270,4.0,20.0,37,0.00,,,0.00,VWS V14.00,2013-02-13 21:00:00,
2013-02-13 15:30:00,55.3,29.5,29.71,West,270,4.0,18.0,37,0.00,,,0.00,VWS V14.00,2013-02-13 21:30:00,
2013-02-13 16:00:00,54.8,29.0,29.71,West,270,3.0,15.0,37,0.00,,,0.00,VWS V14.00,2013-02-13 22:00:00,
2013-02-13 16:30:00,53.4,28.5,29.70,West,270,3.0,14.0,38,0.00,,,0.00,VWS V14.00,2013-02-13 22:30:00,
2013-02-13 17:00:00,52.6,28.4,29.70,West,270,3.0,18.0,39,0.00,,,0.00,VWS V14.00,2013-02-13 23:00:00,
2013-02-13 17:30:00,51.9,28.4,29.70,West,270,3.0,12.0,40,0.00,,,0.00,VWS V14.00,2013-02-13 23:30:00,
2013-02-13 18:00:00,50.8,29.1,29.70,WSW,248,2.0,10.0,43,0.00,,,0.00,VWS V14.00,2013-02-14 00:00:00,
2013-02-13 18:30:00,50.0,29.5,29.70,WSW,248,1.0,8.0,45,0.00,,,0.00,VWS V14.00,2013-02-14 00:30:00,
2013-02-13 19:00:00,49.4,29.5,29.71,WSW,248,1.0,6.0,46,0.00,,,0.00,VWS V14.00,2013-02-14 01:00:00,
2013-02-13 19:30:00,46.2,29.6,29.71,WSW,250,0.0,5.0,52,0.00,,,0.00,VWS V14.00,2013-02-14 01:30:00,
2013-02-13 19:57:00,47.0,29.8,29.72,WSW,247,0.0,1.0,51,0.00,,,0.00,VWS V14.00,2013-02-14 01:57:00,
2013-02-13 20:00:00,47.0,29.8,29.72,WSW,247,0.0,3.0,51,0.00,,,0.00,VWS V14.00,2013-02-14 02:00:00,
2013-02-13 20:02:00,46.9,29.7,29.72,WSW,247,3.0,4.0,51,0.00,,,0.00,VWS V14.00,2013-02-14 02:02:00,
2013-02-13 20:07:00,46.8,29.6,29.72,WSW,247,0.0,4.0,51,0.00,,,0.00,VWS V14.00,2013-02-14 02:07:00,
2013-02-13 20:12:00,46.7,29.5,29.72,WSW,250,1.0,5.0,51,0.00,,,0.00,VWS V14.00,2013-02-14 02:12:00,
2013-02-13 20:17:00,46.6,29.5,29.72,WSW,250,0.0,5.0,51,0.00,,,0.00,VWS V14.00,2013-02-14 02:17:00,
2013-02-13 20:22:00,46.4,29.3,29.71,WSW,250,0.0,5.0,51,0.00,,,0.00,VWS V14.00,2013-02-14 02:22:00,
2013-02-13 20:27:00,46.2,29.6,29.71,WSW,250,0.0,5.0,52,0.00,,,0.00,VWS V14.00,2013-02-14 02:27:00,
2013-02-13 20:30:00,46.2,29.6,29.71,WSW,250,0.0,5.0,52,0.00,,,0.00,VWS V14.00,2013-02-14 02:30:00,
2013-02-13 20:32:00,45.9,29.3,29.71,WSW,250,0.0,0.0,52,0.00,,,0.00,VWS V14.00,2013-02-14 02:32:00,
2013-02-13 20:37:00,45.6,29.5,29.71,WSW,250,0.0,3.0,53,0.00,,,0.00,VWS V14.00,2013-02-14 02:37:00,
2013-02-13 20:43:00,45.5,29.4,29.71,WSW,250,0.0,3.0,53,0.00,,,0.00,VWS V14.00,2013-02-14 02:43:00,
2013-02-13 20:48:00,45.1,29.5,29.71,WSW,250,0.0,3.0,54,0.00,,,0.00,VWS V14.00,2013-02-14 02:48:00,
2013-02-13 20:53:00,44.9,29.3,29.71,WSW,250,0.0,3.0,54,0.00,,,0.00,VWS V14.00,2013-02-14 02:53:00,
2013-02-13 20:58:00,44.7,29.5,29.71,WSW,250,0.0,3.0,55,0.00,,,0.00,VWS V14.00,2013-02-14 02:58:00,
2013-02-13 21:00:00,44.7,29.5,29.71,WSW,250,0.0,3.0,55,0.00,,,0.00,VWS V14.00,2013-02-14 03:00:00,
2013-02-13 21:03:00,44.5,29.4,29.72,WSW,250,0.0,4.0,55,0.00,,,0.00,VWS V14.00,2013-02-14 03:03:00,
2013-02-13 21:08:00,44.3,29.2,29.72,WSW,250,2.0,4.0,55,0.00,,,0.00,VWS V14.00,2013-02-14 03:08:00,
2013-02-13 21:13:00,44.1,29.4,29.72,WSW,250,0.0,4.0,56,0.00,,,0.00,VWS V14.00,2013-02-14 03:13:00,
2013-02-13 21:18:00,43.8,29.1,29.72,WSW,250,0.0,4.0,56,0.00,,,0.00,VWS V14.00,2013-02-14 03:18:00,
2013-02-13 21:23:00,43.5,29.3,29.72,WSW,250,0.0,4.0,57,0.00,,,0.00,VWS V14.00,2013-02-14 03:23:00,
2013-02-13 21:28:00,43.3,29.1,29.72,WSW,250,0.0,4.0,57,0.00,,,0.00,VWS V14.00,2013-02-14 03:28:00,
2013-02-13 21:30:00,43.3,29.1,29.72,WSW,250,0.0,4.0,57,0.00,,,0.00,VWS V14.00,2013-02-14 03:30:00,
2013-02-13 21:33:00,43.1,29.3,29.72,WSW,250,0.0,5.0,58,0.00,,,0.00,VWS V14.00,2013-02-14 03:33:00,
2013-02-13 21:38:00,42.9,29.2,29.73,WSW,252,0.0,6.0,58,0.00,,,0.00,VWS V14.00,2013-02-14 03:38:00,
2013-02-13 21:43:00,42.6,29.3,29.73,WSW,252,0.0,6.0,59,0.00,,,0.00,VWS V14.00,2013-02-14 03:43:00,
2013-02-13 21:48:00,42.4,29.1,29.73,WSW,252,0.0,6.0,59,0.00,,,0.00,VWS V14.00,2013-02-14 03:48:00,
2013-02-13 21:53:00,42.1,29.2,29.73,WSW,252,0.0,6.0,60,0.00,,,0.00,VWS V14.00,2013-02-14 03:53:00,
2013-02-13 21:58:00,41.8,29.4,29.73,WSW,252,0.0,0.0,61,0.00,,,0.00,VWS V14.00,2013-02-14 03:58:00,
2013-02-13 22:00:00,41.8,29.4,29.73,WSW,252,0.0,6.0,61,0.00,,,0.00,VWS V14.00,2013-02-14 04:00:00,
2013-02-13 22:03:00,41.5,29.1,29.73,WSW,252,2.0,5.0,61,0.00,,,0.00,VWS V14.00,2013-02-14 04:03:00,
2013-02-13 22:08:00,41.3,29.3,29.73,WSW,254,2.0,5.0,62,0.00,,,0.00,VWS V14.00,2013-02-14 04:08:00,
2013-02-13 22:13:00,41.1,29.5,29.74,WSW,254,0.0,5.0,63,0.00,,,0.00,VWS V14.00,2013-02-14 04:13:00,
2013-02-13 22:18:00,40.9,29.7,29.74,West,259,6.0,6.0,64,0.00,,,0.00,VWS V14.00,2013-02-14 04:18:00,
2013-02-13 22:23:00,40.8,30.0,29.74,WNW,284,4.0,8.0,65,0.00,,,0.00,VWS V14.00,2013-02-14 04:23:00,
2013-02-13 22:28:00,40.9,30.1,29.74,NNW,327,5.0,6.0,65,0.00,,,0.00,VWS V14.00,2013-02-14 04:28:00,
2013-02-13 22:30:00,40.8,30.0,29.74,NNW,327,6.0,11.0,65,0.00,,,0.00,VWS V14.00,2013-02-14 04:30:00,
2013-02-13 22:33:00,40.9,30.4,29.74,NW,320,6.0,8.0,66,0.00,,,0.00,VWS V14.00,2013-02-14 04:33:00,
2013-02-13 22:38:00,41.3,30.4,29.74,NW,323,2.0,8.0,65,0.00,,,0.00,VWS V14.00,2013-02-14 04:38:00,
2013-02-13 22:43:00,41.5,30.6,29.74,NW,319,4.0,9.0,65,0.00,,,0.00,VWS V14.00,2013-02-14 04:43:00,
2013-02-13 22:48:00,41.8,30.9,29.74,NW,321,4.0,9.0,65,0.00,,,0.00,VWS V14.00,2013-02-14 04:48:00,
2013-02-13 22:53:00,42.0,30.7,29.74,NW,319,0.0,9.0,64,0.00,,,0.00,VWS V14.00,2013-02-14 04:53:00,
2013-02-13 22:58:00,42.1,30.8,29.74,NW,319,7.0,7.0,64,0.00,,,0.00,VWS V14.00,2013-02-14 04:58:00,
2013-02-13 23:00:00,42.1,30.8,29.74,NW,319,1.0,7.0,64,0.00,,,0.00,VWS V14.00,2013-02-14 05:00:00,
2013-02-13 23:02:00,42.1,30.8,29.74,NW,319,5.0,7.0,64,0.00,,,0.00,VWS V14.00,2013-02-14 05:02:00,
2013-02-13 23:03:00,42.1,30.8,29.74,NW,319,0.0,7.0,64,0.00,,,0.00,VWS V14.00,2013-02-14 05:03:00,
2013-02-13 23:09:00,42.0,30.7,29.74,NW,317,0.0,8.0,64,0.00,,,0.00,VWS V14.00,2013-02-14 05:09:00,
2013-02-13 23:14:00,41.8,30.5,29.75,NW,317,0.0,8.0,64,0.00,,,0.00,VWS V14.00,2013-02-14 05:14:00,
2013-02-13 23:19:00,41.5,30.6,29.75,NW,317,1.0,8.0,65,0.00,,,0.00,VWS V14.00,2013-02-14 05:19:00,
2013-02-13 23:24:00,41.3,30.4,29.75,NW,317,0.0,8.0,65,0.00,,,0.00,VWS V14.00,2013-02-14 05:24:00,
2013-02-13 23:26:00,41.2,30.3,29.75,NW,317,0.0,8.0,65,0.00,,,0.00,VWS V14.00,2013-02-14 05:26:00,
2013-02-13 23:30:00,41.1,30.6,29.75,NW,317,0.0,8.0,66,0.00,,,0.00,VWS V14.00,2013-02-14 05:30:00,
2013-02-13 23:31:00,41.0,30.5,29.75,NW,317,0.0,2.0,66,0.00,,,0.00,VWS V14.00,2013-02-14 05:31:00,
2013-02-13 23:36:00,40.7,30.2,29.75,NW,317,0.0,4.0,66,0.00,,,0.00,VWS V14.00,2013-02-14 05:36:00,
2013-02-13 23:41:00,40.6,30.5,29.75,NW,317,0.0,4.0,67,0.00,,,0.00,VWS V14.00,2013-02-14 05:41:00,
2013-02-13 23:46:00,40.4,30.7,29.75,NW,317,0.0,4.0,68,0.00,,,0.00,VWS V14.00,2013-02-14 05:46:00,
2013-02-13 23:51:00,40.4,30.7,29.75,NW,317,0.0,5.0,68,0.00,,,0.00,VWS V14.00,2013-02-14 05:51:00,
2013-02-13 23:56:00,40.4,30.7,29.76,NW,318,0.0,8.0,68,0.00,,,0.00,VWS V14.00,2013-02-14 05:56:00,